Location: Vancouver
(49.2500°N, 123.1330°W)
Time: 07:12:45
(UTC-08:00)

ISS - All Passes

Search period start: 13 February 2016 00:00
Search period end: 23 February 2016 00:00
Orbit: 399 x 407 km, 51.6° (Epoch: 13 February)

Date Brightness Start Highest point End Pass type
(mag) Time Alt. Az. Time Alt. Az. Time Alt. Az.
13 Feb - 14:32:06 10° SSW 14:34:40 21° SE 14:37:14 10° E daylight
13 Feb - 16:07:32 10° WSW 16:10:48 89° SSE 16:14:03 10° ENE daylight
13 Feb - 17:44:13 10° WNW 17:47:25 53° N 17:50:36 10° E daylight
13 Feb - 19:20:45 10° WNW 19:24:01 87° SSW 19:27:15 10° ESE visible
13 Feb - 20:57:38 10° W 21:00:08 21° SW 21:02:38 10° SSE visible
14 Feb - 13:40:29 10° SSE 13:42:07 13° SE 13:43:45 10° ESE daylight
14 Feb - 15:14:50 10° SW 15:18:03 62° SSE 15:21:15 10° ENE daylight
14 Feb - 16:51:21 10° W 16:54:33 56° N 16:57:46 10° ENE daylight
14 Feb - 18:27:59 10° WNW 18:31:13 71° NNE 18:34:28 10° E visible
14 Feb - 20:04:33 10° W 20:07:31 33° SSW 20:10:28 10° SSE visible
15 Feb - 14:22:17 10° SW 14:25:21 39° SSE 14:28:24 10° ENE daylight
15 Feb - 15:58:28 10° W 16:01:42 65° NNW 16:04:56 10° ENE daylight
15 Feb - 17:35:09 10° WNW 17:38:23 58° N 17:41:36 10° E daylight
15 Feb - 19:11:40 10° WNW 19:14:50 52° SSW 19:18:00 10° SE visible
15 Feb - 20:49:50 10° WSW 20:50:41 11° SW 20:51:31 10° SSW visible
16 Feb - 13:29:58 10° SSW 13:32:41 25° SE 13:35:24 10° E daylight
16 Feb - 15:05:36 10° WSW 15:08:52 83° NNW 15:12:08 10° ENE daylight
16 Feb - 16:42:18 10° WNW 16:45:30 53° N 16:48:41 10° E daylight
16 Feb - 18:18:49 10° WNW 18:22:05 79° SSW 18:25:19 10° ESE visible
16 Feb - 19:55:50 10° W 19:58:08 18° SW 20:00:26 10° S visible
17 Feb - 12:38:04 10° S 12:40:05 15° SE 12:42:05 10° E daylight
17 Feb - 14:12:50 10° WSW 14:16:04 70° SSE 14:19:18 10° ENE daylight
17 Feb - 15:49:24 10° W 15:52:36 54° N 15:55:49 10° ENE daylight
17 Feb - 17:26:00 10° WNW 17:29:16 76° NNE 17:32:30 10° ESE daylight
17 Feb - 19:02:38 10° W 19:05:31 29° SW 19:08:21 10° SSE visible
18 Feb - 13:20:10 10° SW 13:23:18 45° SSE 13:26:26 10° ENE daylight
18 Feb - 14:56:29 10° W 14:59:42 61° N 15:02:57 10° ENE daylight
18 Feb - 16:33:09 10° WNW 16:36:23 61° N 16:39:37 10° E daylight
18 Feb - 18:09:40 10° WNW 18:12:49 46° SSW 18:15:55 10° SE visible
19 Feb - 12:27:44 10° SSW 12:30:35 28° SE 12:33:27 10° E daylight
19 Feb - 14:03:34 10° WSW 14:06:50 77° NNW 14:10:05 10° ENE daylight
19 Feb - 15:40:16 10° WNW 15:43:29 54° N 15:46:41 10° E daylight
19 Feb - 17:16:47 10° WNW 17:20:01 71° SSW 17:23:15 10° ESE daylight
19 Feb - 18:53:58 10° W 18:56:01 16° SW 18:58:02 10° S visible
20 Feb - 11:35:39 10° S 11:37:56 18° SE 11:40:13 10° E daylight
20 Feb - 13:10:43 10° WSW 13:13:58 78° SSE 13:17:14 10° ENE daylight
20 Feb - 14:47:20 10° W 14:50:33 53° N 14:53:44 10° ENE daylight
20 Feb - 16:23:55 10° WNW 16:27:10 82° NNE 16:30:25 10° ESE daylight
20 Feb - 18:00:38 10° W 18:03:22 25° SW 18:06:06 10° SSE daylight
21 Feb - 10:44:35 10° SSE 10:45:19 11° SE 10:46:04 10° ESE daylight
21 Feb - 12:17:58 10° SW 12:21:09 51° SSE 12:24:20 10° ENE daylight
21 Feb - 13:54:22 10° W 13:57:36 59° N 14:00:50 10° ENE daylight
21 Feb - 15:31:02 10° WNW 15:34:16 64° N 15:37:30 10° E daylight
21 Feb - 17:07:34 10° WNW 17:10:39 40° SSW 17:13:42 10° SE daylight
22 Feb - 11:25:25 10° SSW 11:28:23 32° SSE 11:31:21 10° E daylight
22 Feb - 13:01:25 10° W 13:04:41 72° NNW 13:07:56 10° ENE daylight
22 Feb - 14:38:06 10° WNW 14:41:20 55° N 14:44:32 10° E daylight
22 Feb - 16:14:37 10° WNW 16:17:50 63° SSW 16:21:03 10° SE daylight
22 Feb - 17:52:04 10° WSW 17:53:46 14° SW 17:55:28 10° SSW daylight
